Kezdőlap
METAR-TAF:

METAR-TAF

Repülőterek :

Stevens Point Municipal Airport

Stevens Point, Wisconsin, Amerikai Egyesült Államok

földrajzi szélesség: 44-32-42N, földrajzi hosszúság: 089-31-49W, magasság: 338 m

Jelenlegi meteorológiai megfigyelések

A jelentés 29 perccel ezelõtt készült, 15:55 UTC
Észak-északnyugati szél 7 kt
Hőmérséklet 9°C
Páratartalom 71%
Légköri nyomás 1016 hPa
Látótávolság: 16.1 km
Szórványos felhőzet 2400 lábon
Borult 3600 lábon

METAR: KSTE 011555Z AUTO 33007KT 10SM SCT024 OVC036 09/04 A3001 RMK AO2 T00890042

Idő: 11:24 (16:24 UTC)


TAF: hiányzik

Meteorológiai megfigyelések és előrejelzések több, mint 4000 repülőtéren (METAR és TAF jelentéseket).

A térképen piros és sárga pontok jelzik az elérhető meteorológiai állomásokat.

Mozgassa az egeret a pont fölött, hogy megjelenjen az állomás neve.

Azután kattintson az időjárási megfigyelések és előrejelzések megtekintéséhez.

A térkép megváltoztatása: kattintson a fekete keresztel jelölt zöld gombra ráközelítéshez, a vonallal jelölt zöld gombra távolításhoz, vagy a zöld nyilakra a szomszédos térképek eléréséhez.


METAR-TAF: